SCP
0 0 0 0 0 0 0 0 0 0 1 1 1 2 2 1 1 2 2 2 3 3 3 3 3 4 4 4 4 4 5 4 4 4 4 4 4 4 3 2 2 3 3 3
0 0 0 0 0 0 0 0 0 1 1 1 1 2 2 2 1 2 2 2 2 2 2 2 3 4 4 4 3 4 4 4 4 4 4 3 3 3 2 2 3 3 3 2
0 0 0 0 0 0 0 0 0 0 1 1 1 1 2 2 1 1 1 2 2 2 2 2 2 3 3 3 3 3 4 4 4 3 2 2 2 2 2 2 3 3 3 3
0 0 0 0 0 0 0 0 0 0 1 1 1 1 2 2 1 1 1 1 1 2 2 2 2 2 2 2 3 3 3 3 3 2 2 2 1 1 2 2 3 3 3 3
0 0 0 0 0 0 0 0 0 0 0 0 0 1 2 2 1 1 1 1 1 1 1 1 1 1 2 2 2 2 2 2 2 2 2 2 2 2 2 2 2 3 3 3
0 0 0 0 0 0 0 0 0 0 0 0 0 1 2 1 1 1 1 1 1 1 1 1 1 1 2 2 2 2 2 2 1 1 1 2 2 2 2 2 2 2 2 2
0 0 0 0 0 0 0 0 0 0 0 0 0 1 1 1 1 1 1 1 1 1 1 1 2 2 1 1 1 2 2 1 1 1 1 1 1 1 1 1 1 1 1 2
0 0 0 0 0 0 0 0 0 0 0 0 0 1 1 1 1 1 1 1 1 1 1 1 2 2 1 1 1 1 1 1 1 1 1 1 1 1 1 1 1 1 1 1
0 0 0 0 0 0 0 0 0 0 0 0 0 0 1 1 1 1 1 1 1 1 1 1 1 1 1 1 1 0 0 1 1 1 1 1 1 0 0 0 1 1 1 1
0 0 0 0 0 0 0 0 0 0 0 0 0 0 1 1 1 1 1 1 1 1 1 1 1 1 1 0 0 0 0 1 1 1 1 1 0 0 0 0 0 1 1 1
0 0 0 0 0 0 0 0 0 0 0 0 0 0 1 1 1 1 1 1 1 1 1 1 0 0 0 0 0 0 0 0 0 0 0 0 0 0 0 0 0 0 1 1
0 0 0 0 0 0 0 0 0 0 0 0 0 0 0 0 1 1 1 1 1 1 1 0 0 0 0 0 0 0 0 0 0 0 0 0 0 0 0 0 0 0 0 0
0 0 0 0 0 0 0 0 0 0 0 0 0 0 0 0 0 1 1 1 1 1 1 0 0 0 0 0 0 0 0 0 0 0 0 0 0 0 0 0 0 0 0 0
0 0 0 0 0 0 0 0 0 0 0 0 0 0 0 0 1 1 1 1 1 1 1 0 1 1 1 0 0 0 0 0 0 0 0 0 0 0 0 0 0 0 0 0
1 0 0 0 0 0 0 0 0 0 0 0 0 0 0 0 1 1 1 1 1 1 1 1 1 1 1 1 0 0 0 0 0 0 0 0 0 0 0 0 0 1 1 0
1 1 0 0 0 0 0 0 0 0 0 0 0 0 0 1 1 1 1 1 1 1 1 1 1 1 1 1 1 0 0 0 0 0 0 0 0 0 0 0 0 1 1 1
1 1 0 0 0 0 0 0 0 0 0 0 0 0 1 1 1 1 1 1 1 1 1 1 1 2 2 2 1 1 0 0 0 0 0 0 0 0 0 0 1 1 1 1
1 1 1 0 0 0 0 0 0 0 0 0 0 0 0 0 1 1 1 1 1 1 1 2 2 2 3 3 2 1 1 0 0 0 0 0 0 0 0 1 1 1 1 2
1 1 1 0 0 0 0 0 0 0 0 0 0 0 0 0 0 0 0 0 1 1 2 2 2 2 3 4 3 2 1 0 0 0 0 0 0 0 1 1 1 2 2 2
1 1 0 0 0 0 1 1 1 0 0 0 1 1 1 0 0 0 0 1 1 1 2 2 2 3 4 5 4 3 1 1 0 0 0 0 1 1 1 2 2 3 3 2
1 1 0 0 0 1 1 1 1 1 1 1 0 1 1 0 0 1 1 1 1 1 1 2 3 4 5 6 6 4 2 1 1 1 1 1 1 1 2 2 3 4 3 2
1 1 1 1 1 1 1 1 1 1 1 1 0 0 1 1 1 1 1 1 1 1 1 2 3 5 6 7 6 5 3 2 2 2 2 2 2 2 2 3 4 4 3 2
1 1 1 1 1 1 1 1 1 1 1 1 0 1 1 1 1 1 1 1 1 1 1 2 4 6 6 6 5 5 4 3 3 3 3 4 4 4 4 4 4 3 3 2
1 1 1 1 1 1 1 1 1 1 1 1 1 1 1 1 1 1 2 2 2 2 2 3 4 6 6 5 4 5 4 4 4 4 5 5 5 4 4 4 3 3 2 2
1 1 1 1 2 1 1 1 1 1 1 1 1 1 1 1 1 2 2 2 3 3 2 3 4 5 5 4 4 4 4 4 4 4 5 5 4 4 4 4 3 2 2 2
1 1 1 2 2 1 1 1 1 1 1 1 1 1 1 1 1 2 2 3 3 3 2 3 3 4 4 4 3 3 4 4 4 4 4 4 4 3 4 3 3 2 1 1
Wind_Speed
12 11 9 9 8 9 9 10 6 1 3 5 9 8 8 7 9 11 12 11 11 10 10 10 9 9 9 7 6 5 5 3 2 2 2 1 1 1 1 0 2 1 1 1
11 10 11 8 8 7 8 9 7 2 1 4 7 7 5 6 8 9 11 11 11 11 9 9 8 8 7 6 5 5 4 4 3 2 2 1 1 2 1 1 1 1 1 2
11 7 7 7 8 7 6 7 7 3 3 2 4 3 5 5 7 8 9 11 11 10 9 8 7 7 6 6 5 5 5 4 4 4 3 3 2 2 1 1 0 1 2 2
9 8 7 8 8 6 6 7 7 5 1 1 2 1 2 4 6 7 9 10 10 9 9 7 6 6 5 5 6 6 5 4 4 4 4 5 4 4 4 3 2 3 3 3
9 8 8 8 7 7 6 5 6 7 3 1 2 2 4 6 7 9 9 10 9 8 8 7 6 6 5 4 5 6 5 4 3 3 4 4 5 5 5 5 4 4 4 3
11 9 8 6 5 6 6 3 8 9 6 2 6 4 6 8 11 11 11 11 9 9 8 7 6 6 5 4 4 6 5 3 3 3 4 4 5 5 5 5 5 4 3 3
8 9 7 6 7 5 6 2 3 4 2 5 8 3 6 11 13 13 12 11 10 9 8 8 7 6 5 4 4 4 4 3 3 4 4 5 5 5 5 4 5 5 4 4
6 4 6 8 7 6 7 5 3 3 4 4 3 3 7 11 12 12 12 11 10 10 8 7 7 6 4 4 3 2 3 2 2 3 3 3 4 4 4 6 5 5 4 4
4 4 7 9 7 7 6 6 6 4 3 1 2 7 8 10 13 12 13 11 10 9 9 8 7 6 4 3 3 2 2 2 2 3 3 3 2 3 4 4 5 4 5 6
6 5 6 6 7 6 8 9 6 5 3 1 1 4 7 10 11 11 11 11 10 9 8 8 6 5 4 2 1 1 1 1 1 2 3 4 4 4 3 4 4 4 4 5
6 6 6 5 6 6 6 7 5 5 5 2 1 1 7 10 10 11 11 10 10 8 7 7 6 5 3 1 1 1 0 1 1 1 2 3 3 4 4 4 4 4 4 5
4 5 4 6 9 9 7 6 5 4 6 4 1 4 7 8 9 9 10 11 10 8 7 7 7 5 3 1 1 1 1 2 2 2 2 2 3 3 4 5 4 5 5 5
4 3 4 5 8 8 10 8 6 4 4 4 2 4 6 7 8 8 9 10 9 7 6 6 6 4 2 1 1 1 1 2 3 3 4 4 4 4 4 5 4 5 5 5
4 5 6 5 8 9 11 10 8 6 4 2 1 5 8 8 8 9 9 9 9 8 6 6 5 4 2 1 0 1 1 2 3 3 4 4 4 4 4 5 5 5 5 6
4 6 7 8 10 11 12 11 9 7 6 4 3 6 9 9 9 9 10 9 8 9 8 7 5 4 3 2 1 0 1 1 2 3 4 3 4 4 4 4 5 5 5 7
3 5 8 11 11 12 13 10 8 7 6 5 4 2 10 10 9 9 9 9 8 8 8 7 6 5 3 2 1 0 0 1 2 3 4 3 4 4 4 5 5 5 5 6
6 6 9 10 10 10 9 7 7 6 4 4 2 4 10 9 8 9 8 8 7 7 7 7 6 5 4 2 2 1 1 1 2 2 3 3 4 4 4 6 6 5 5 6
6 6 6 9 9 10 5 5 4 4 4 2 2 6 7 7 8 8 9 8 7 7 7 7 6 6 5 3 3 1 2 2 2 3 3 3 4 4 5 5 5 5 5 5
5 6 7 8 8 8 8 7 3 3 3 2 3 6 6 7 7 8 9 9 8 7 7 7 6 6 5 4 3 2 2 3 3 3 3 4 4 5 5 6 5 5 5 6
6 7 8 8 8 7 4 5 3 2 3 2 4 5 5 5 4 6 11 10 9 8 7 7 7 6 5 4 2 2 3 3 3 3 3 4 4 5 6 6 5 5 5 6
9 11 10 9 9 5 1 3 4 3 2 3 4 5 5 4 2 8 11 10 10 9 8 8 7 5 5 4 3 3 3 3 3 3 4 4 5 5 6 6 5 5 6 7
9 9 6 5 7 2 1 2 2 4 2 1 1 3 5 7 9 10 11 10 10 9 9 9 6 5 5 5 4 4 3 3 3 4 5 5 5 7 6 4 5 5 6 7
5 4 1 3 1 3 5 2 2 3 2 2 0 3 5 7 8 10 10 10 10 9 8 7 7 6 6 5 4 4 3 3 3 4 5 6 6 6 6 6 7 6 5 5
4 4 2 3 5 4 7 5 1 1 2 1 1 2 4 6 8 10 10 9 8 8 8 7 7 6 5 5 5 4 4 4 4 6 6 6 6 7 6 5 5 5 4 4
4 3 4 3 1 5 2 3 4 2 2 1 1 2 3 5 6 9 9 9 8 7 7 6 5 5 5 5 5 5 4 4 5 6 6 7 8 8 5 5 5 5 4 4
4 3 3 2 5 3 4 5 6 4 2 2 0 1 3 4 5 8 8 8 7 7 6 6 6 5 5 5 5 5 5 5 6 6 7 7 7 6 5 5 5 6 7 7
Wind_Direction
241 245 269 284 296 306 314 314 317 329 138 109 119 150 179 170 146 136 130 126 119 114 111 108 106 105 101 98 97 93 87 73 55 48 6 6 21 350 331 113 97 50 345 350
255 254 267 289 306 307 310 306 302 299 148 127 128 138 144 149 138 135 133 131 127 126 122 120 122 119 116 120 120 111 93 68 43 36 342 307 332 296 272 49 81 40 354 331
270 274 285 288 288 296 295 289 283 263 126 88 122 128 137 126 125 130 131 134 138 142 141 139 134 127 127 119 104 91 77 63 39 9 349 354 332 299 4 6 75 28 345 324
276 282 288 293 291 298 297 293 307 314 347 314 170 153 146 149 154 155 152 147 148 144 146 147 141 126 121 119 112 98 84 65 36 9 12 351 340 346 349 346 6 360 322 298
275 277 283 283 300 313 302 317 1 12 25 21 264 173 198 177 188 176 167 159 154 154 150 148 137 127 119 113 108 105 91 71 43 7 11 355 356 349 348 345 338 335 305 288
288 288 283 289 298 294 299 332 35 22 7 312 240 230 178 184 188 176 172 163 159 156 149 141 131 124 123 116 102 98 94 70 37 8 12 9 356 343 329 321 322 329 320 324
275 282 281 279 276 277 278 293 28 8 344 254 226 212 158 179 172 170 170 164 163 157 149 144 139 135 135 118 91 87 89 64 28 8 17 8 355 327 312 332 348 344 331 340
267 272 268 267 269 276 274 267 232 237 226 241 212 157 142 156 153 159 160 157 156 155 151 146 145 146 147 130 115 93 90 71 26 3 10 345 333 328 349 4 344 325 322 336
274 266 246 254 275 285 284 282 276 259 231 223 179 127 130 147 146 154 155 155 157 156 150 150 152 144 133 110 92 59 61 51 13 344 330 288 312 330 337 327 313 327 341 324
262 270 255 246 254 249 271 290 287 291 300 68 62 148 156 160 159 161 161 158 155 154 150 145 138 126 109 93 88 79 54 16 330 314 318 334 354 336 326 317 322 314 315 322
261 274 278 279 284 283 268 276 305 318 322 350 125 138 150 169 170 171 168 158 151 157 154 148 141 134 137 158 131 110 14 331 320 313 321 312 311 323 322 310 312 322 319 313
280 292 309 320 319 318 290 283 283 302 321 324 64 111 132 158 168 171 161 152 151 158 153 146 140 139 145 138 37 14 359 333 334 334 318 310 322 325 324 324 330 320 313 309
336 315 298 334 343 325 295 276 265 258 280 309 357 142 159 160 159 156 146 142 141 144 142 135 130 134 136 100 45 343 344 337 343 351 335 341 342 339 325 318 314 309 307 305
279 273 274 251 238 243 259 264 264 260 271 302 39 154 173 168 153 146 139 142 148 149 148 143 135 138 131 117 59 323 346 355 352 352 329 336 334 324 315 312 310 307 306 302
256 268 276 266 247 246 253 254 250 244 254 259 208 178 171 160 154 149 148 156 160 157 159 155 149 146 149 150 160 262 330 10 349 323 317 327 326 316 309 308 304 301 301 303
232 279 284 276 262 264 260 254 252 253 253 258 255 141 131 141 146 147 155 164 167 168 166 158 155 153 155 166 186 168 322 339 308 307 313 324 316 312 311 302 294 296 298 299
244 251 270 282 294 287 275 273 260 248 244 255 262 118 134 144 149 153 159 167 170 170 159 151 151 146 147 160 151 214 254 245 268 287 304 313 312 313 313 310 313 309 307 302
243 266 275 276 280 277 280 272 263 253 238 220 131 129 140 142 147 156 161 162 164 159 153 147 148 145 150 150 155 202 252 251 261 276 292 307 310 312 311 304 303 304 302 300
221 241 260 268 268 271 282 288 274 273 259 166 145 134 131 135 150 161 155 152 152 146 138 139 146 146 146 154 158 201 254 261 271 286 305 312 312 307 303 301 302 301 298 296
208 212 241 252 259 268 249 239 252 251 228 126 127 128 137 164 201 156 144 144 141 136 139 144 148 145 146 148 155 224 254 267 287 305 312 310 304 298 294 291 290 292 289 286
222 219 231 249 260 256 234 204 202 235 110 100 128 144 169 167 101 119 136 139 140 143 146 148 149 149 151 157 171 228 256 273 292 303 299 293 290 284 277 276 277 281 284 286
233 233 228 260 270 268 38 265 52 88 111 198 149 142 132 122 131 140 144 146 150 155 158 158 156 157 160 169 186 225 247 267 286 289 288 286 285 287 295 294 282 276 277 283
269 272 166 154 232 319 322 11 120 143 244 271 162 132 144 152 155 150 150 153 157 163 162 164 166 172 175 179 193 226 240 251 266 274 277 280 283 278 276 277 281 279 271 279
288 309 282 174 184 212 264 271 248 200 241 250 178 162 164 160 160 155 155 158 162 165 164 172 176 184 185 188 202 218 227 234 252 265 271 273 271 270 267 262 274 284 289 295
284 266 275 254 187 176 227 338 334 345 332 293 219 181 172 164 163 155 154 160 164 166 168 176 182 191 194 193 204 217 222 227 250 264 270 274 274 272 268 264 260 269 274 271
294 316 304 28 33 11 35 9 338 349 341 310 272 171 168 163 156 153 156 159 164 170 170 178 190 201 204 203 212 220 222 228 244 260 267 274 280 281 280 280 280 249 245 242